2001 CA21
ephemeris date magn radius delta ra dec elong phase
Today25 May 202623.82.802 AU3.814 AU03h59m+21°14'1.5°0.5°
2001 CA21 - 2026-05-25
astro.vanbuitenen.nl


 
-1 year
-1 month
-1 day
Now
+1 day
+1 month
+1 year

The interactive orbit chart above shows the body's path through the solar system and its position at the given date. Green and blue lines are shown perpendicular to the ecliptic plane: Green if the path is above the ecliptic plane, blue if it is below. (Left-click and drag to rotate the view; Right-click and drag to move the view; Use scroll wheel to zoom in our out.)

The orbital elements of 2001 CA21 are:

            e (Eccentricity)                : 0.8289717
            a (Semimajor axis)              : 2.1131443
            i (Inclination)                 : 5.25828
            Ω (Longitude of ascending node) : 51.79975
            ω (Argument of perihelion)      : 212.75474
            M (Mean anomaly)                : 343.17872
            Epoch                           : 2001 Jan 31

            L (Longitude of perihelion)     : 84.44464
            B (Latitude of perihelion)      : -2.84213
            P (Orbital period in years)     : 3.07            
        

The light curve chart below shows the estimated development of the minor planet's magnitude.


The all-sky chart below shows the path of the minor planet over the same period as the light curve. The current position is marked yellow.





The following chart shows the path of the minor planet in the next few days. The field of view is optimized for (~10x50) binoculars and finderscopes.




Ephemerides:
Date       Time       RA (2000)    DEC (2000)    delta   radius  elong  phase   PA    magn
2026-05-25 00:00 UT   03 59 44.5   +21 14 44     3.814    2.802    1.5    0.5   286   23.8 
2026-05-25 00:04 UT   03 59 44.7   +21 14 45     3.814    2.802    1.5    0.5   286   23.8 
2026-05-26 00:00 UT   04 01 07.0   +21 19 04     3.821    2.809    2.0    0.7   278   23.9 
2026-05-27 00:00 UT   04 02 29.2   +21 23 20     3.827    2.816    2.6    1.0   274   23.9 
2026-05-28 00:00 UT   04 03 51.3   +21 27 34     3.833    2.822    3.3    1.2   271   23.9 
2026-05-29 00:00 UT   04 05 13.1   +21 31 43     3.839    2.829    3.9    1.4   269   24.0 
2026-05-30 00:00 UT   04 06 34.6   +21 35 50     3.845    2.836    4.5    1.6   268   24.0 
2026-05-31 00:00 UT   04 07 55.9   +21 39 53     3.850    2.842    5.1    1.8   267   24.0 
2026-06-01 00:00 UT   04 09 16.9   +21 43 54     3.856    2.849    5.8    2.1   267   24.0 
2026-06-02 00:00 UT   04 10 37.7   +21 47 51     3.861    2.856    6.4    2.3   266   24.1 
2026-06-03 00:00 UT   04 11 58.3   +21 51 45     3.866    2.862    7.1    2.5   266   24.1 
2026-06-04 00:00 UT   04 13 18.6   +21 55 35     3.871    2.869    7.7    2.7   265   24.1 
2026-06-05 00:00 UT   04 14 38.6   +21 59 23     3.875    2.875    8.3    2.9   265   24.1 
2026-06-06 00:00 UT   04 15 58.4   +22 03 07     3.879    2.882    9.0    3.1   265   24.2 
2026-06-07 00:00 UT   04 17 17.9   +22 06 49     3.884    2.888    9.6    3.4   265   24.2 
2026-06-08 00:00 UT   04 18 37.1   +22 10 27     3.887    2.895   10.3    3.6   264   24.2 
2026-06-09 00:00 UT   04 19 56.1   +22 14 02     3.891    2.901   10.9    3.8   264   24.2 
2026-06-10 00:00 UT   04 21 14.8   +22 17 34     3.895    2.907   11.6    4.0   264   24.2 
2026-06-11 00:00 UT   04 22 33.3   +22 21 04     3.898    2.914   12.2    4.2   264   24.3 
2026-06-12 00:00 UT   04 23 51.4   +22 24 30     3.901    2.920   12.8    4.4   264   24.3 
2026-06-13 00:00 UT   04 25 09.3   +22 27 53     3.904    2.926   13.5    4.6   264   24.3 
2026-06-14 00:00 UT   04 26 26.9   +22 31 13     3.907    2.933   14.1    4.9   264   24.3 
2026-06-15 00:00 UT   04 27 44.1   +22 34 31     3.909    2.939   14.8    5.1   264   24.3 
2026-06-16 00:00 UT   04 29 01.1   +22 37 45     3.911    2.945   15.5    5.3   264   24.3 
2026-06-17 00:00 UT   04 30 17.8   +22 40 57     3.914    2.951   16.1    5.5   264   24.4 
2026-06-18 00:00 UT   04 31 34.2   +22 44 05     3.915    2.957   16.8    5.7   264   24.4 
2026-06-19 00:00 UT   04 32 50.2   +22 47 11     3.917    2.963   17.4    5.9   264   24.4 
2026-06-20 00:00 UT   04 34 06.0   +22 50 14     3.919    2.970   18.1    6.1   264   24.4 
2026-06-21 00:00 UT   04 35 21.4   +22 53 14     3.920    2.976   18.7    6.3   264   24.4 


    Terminology:
            
    delta:  distance between minor planet and earth in AU
    radius: distance between minor planet and sun in AU
    magn:   magnitude (brightness) estimate    
    ra:     right ascension in hours (24h = 360deg)
    dec:    declination in degrees
    elong:  elongation in degrees (angle sun-earth-minor planet)    
    phase:  phase angle in degrees (angle sun-minor planet-earth)        
    AU:     Astronomical Unit (mean distance between earth and sun: 149597870.7 km
    

Orbital elements provided by the MPC (Minor Planet Center).
Calculations by a modified version of AAPlus, a C# implementation of the AA+ project by PJ Naughter from the algorithms presented in the book "Astronomical Algorithms" by Jean Meeus.
NGC2000 dso catalog and star labels from VizieR as provided by the Strasbourg astronomical Data Center.
Tycho2 catalog from the ESO archive.